Bryce Canyon, UT

7:35 AM MDT on October 21, 2019 (GMT -0600)
Bryce Canyon

Weather History for KBCE - August, 2019

Change the Weather History Date:

Saturday, August 10, 2019

  Actual Average Record
Temperature  
Mean Temperature 62 °F -  
Max Temperature 77 °F 79 °F 87 °F (1978)
Min Temperature 46 °F 47 °F 36 °F (1974)
Degree Days  
Heating Degree Days 4    
Growing Degree Days 12 (Base 50)    
Moisture  
Dew Point 44 °F    
Average Humidity 56    
Maximum Humidity 89    
Minimum Humidity 23    
Precipitation  
Precipitation 0.00 in - - ()
Sea Level Pressure  
Sea Level Pressure 29.91 in    
Wind  
Wind Speed 6 mph (SW)    
Max Wind Speed 16 mph    
Max Gust Speed 25 mph    
Visibility 10 miles    
Events      
Averages and records for this station are not official NWS values.
T = Trace of Precipitation, MM = Missing Value Source: NWS Daily Summary

Daily Weather History Graph

Daily Weather History Graph

Search for Another Location

Airport or City:

Astronomy

Aug. 10, 2019 Rise Set
Actual Time 6:39 AM MDT 8:27 PM MDT
Civil Twilight 6:11 AM MDT 8:55 PM MDT
Nautical Twilight 5:37 AM MDT 9:29 PM MDT
Astronomical Twilight 5:00 AM MDT 10:06 PM MDT
Moon 5:11 PM MDT (8/10) 2:20 AM MDT (8/10)
Length of Visible Light 14h 44m
Length of Day
13h 47m
Waxing Gibbous, 80% of the Moon is Illuminated
Aug 10
Waxing Gibbous
Aug 15
Full
Aug 23
Last Quarter
Aug 30
New
Sep 5
First Quarter

Hourly Weather History & Observations

Time (MDT) Temp. Windchill Dew Point Humidity Pressure Visibility Wind Dir Wind Speed Gust Speed Precip Events Conditions
12:53 AM 60.1 °F - 48.0 °F 64% 29.90 in 10.0 mi Calm Calm - N/A   Scattered Clouds
1:53 AM 54.0 °F - 46.9 °F 77% 29.92 in 10.0 mi WSW 4.6 mph - N/A   Clear
2:53 AM 51.1 °F - 45.0 °F 80% 29.91 in 10.0 mi West 3.5 mph - N/A   Clear
3:53 AM 48.9 °F - 45.0 °F 86% 29.91 in 10.0 mi WSW 3.5 mph - N/A   Clear
4:53 AM 48.9 °F - 44.1 °F 83% 29.92 in 10.0 mi Calm Calm - N/A   Clear
5:53 AM 46.9 °F - 43.0 °F 86% 29.93 in 10.0 mi WSW 5.8 mph - N/A   Clear
6:53 AM 46.0 °F 42.5 °F 43.0 °F 89% 29.96 in 10.0 mi West 6.9 mph - N/A   Clear
7:53 AM 53.1 °F - 46.9 °F 80% 29.97 in 10.0 mi West 3.5 mph - N/A   Clear
8:53 AM 63.0 °F - 48.9 °F 60% 29.94 in 10.0 mi Calm Calm - N/A   Scattered Clouds
9:53 AM 66.9 °F - 51.1 °F 57% 29.93 in 10.0 mi SE 10.4 mph - N/A   Clear
10:53 AM 68.0 °F - 51.1 °F 55% 29.93 in 10.0 mi SE 9.2 mph - N/A   Clear
11:53 AM 70.0 °F - 46.9 °F 44% 29.92 in 10.0 mi SE 12.7 mph - N/A   Clear
1:53 PM 75.9 °F - 37.0 °F 24% 29.90 in 10.0 mi SSW 16.1 mph 25.3 mph N/A   Clear
2:53 PM 77.0 °F - 36.0 °F 23% 29.89 in 10.0 mi South 12.7 mph 23.0 mph N/A   Clear
3:53 PM 77.0 °F - 39.9 °F 26% 29.88 in 10.0 mi SW 13.8 mph 21.9 mph N/A   Scattered Clouds
4:53 PM 73.9 °F - 37.9 °F 27% 29.87 in 10.0 mi SSW 13.8 mph - N/A   Scattered Clouds
5:53 PM 75.0 °F - 36.0 °F 24% 29.87 in 10.0 mi SSW 11.5 mph 21.9 mph N/A   Partly Cloudy
6:53 PM 73.0 °F - 37.9 °F 28% 29.88 in 10.0 mi SW 10.4 mph - N/A   Clear
7:53 PM 70.0 °F - 44.1 °F 39% 29.86 in 10.0 mi South 6.9 mph - N/A   Scattered Clouds
8:53 PM 62.1 °F - 43.0 °F 50% 29.86 in 10.0 mi Variable 4.6 mph - N/A   Clear
9:53 PM 57.9 °F - 44.1 °F 60% 29.89 in 10.0 mi West 6.9 mph - N/A   Clear
10:53 PM 54.0 °F - 45.0 °F 72% 29.91 in 10.0 mi WSW 6.9 mph - N/A   Clear
11:53 PM 55.0 °F - 43.0 °F 64% 29.90 in 10.0 mi West 6.9 mph - N/A   Clear